TimeEDT,TemperatureF,Dew PointF,Humidity,Sea Level PressureIn,VisibilityMPH,Wind Direction,Wind SpeedMPH,Gust SpeedMPH,PrecipitationIn,Events,Conditions,WindDirDegrees,DateUTC
12:53 AM,63.0,55.9,78,30.15,10.0,North,10.4,-,N/A,,Overcast,10,2013-04-21 04:53:00
1:28 AM,62.6,55.4,77,30.15,10.0,North,9.2,-,N/A,,Overcast,360,2013-04-21 05:28:00
1:53 AM,63.0,55.9,78,30.13,10.0,North,8.1,-,N/A,,Overcast,10,2013-04-21 05:53:00
2:53 AM,63.0,57.9,84,30.10,10.0,North,8.1,-,0.00,,Overcast,360,2013-04-21 06:53:00
3:53 AM,63.0,62.1,97,30.09,10.0,North,5.8,-,0.01,,Overcast,360,2013-04-21 07:53:00
4:53 AM,62.1,62.1,100,30.10,8.0,North,5.8,-,0.17,Rain,Light Rain,10,2013-04-21 08:53:00
5:53 AM,64.0,63.0,96,30.11,10.0,North,9.2,-,0.03,Rain,Light Rain,10,2013-04-21 09:53:00
6:53 AM,64.9,64.0,97,30.11,10.0,NNE,10.4,-,N/A,,Overcast,20,2013-04-21 10:53:00
7:01 AM,64.4,64.4,100,30.12,10.0,North,9.2,-,N/A,,Overcast,350,2013-04-21 11:01:00
7:53 AM,64.9,63.0,93,30.12,10.0,North,9.2,-,N/A,,Overcast,360,2013-04-21 11:53:00
8:53 AM,66.9,64.0,90,30.12,10.0,NNE,6.9,-,N/A,,Overcast,20,2013-04-21 12:53:00
9:53 AM,72.0,66.0,81,30.12,10.0,NE,8.1,-,N/A,,Overcast,40,2013-04-21 13:53:00
10:32 AM,73.4,66.2,78,30.13,10.0,ENE,10.4,-,N/A,,Mostly Cloudy,60,2013-04-21 14:32:00
10:53 AM,75.0,68.0,79,30.13,10.0,NE,10.4,-,N/A,,Overcast,50,2013-04-21 14:53:00
11:53 AM,79.0,69.1,72,30.12,10.0,East,12.7,-,N/A,,Overcast,80,2013-04-21 15:53:00
12:39 PM,75.2,69.8,83,30.13,10.0,East,9.2,-,0.00,Rain,Light Rain,90,2013-04-21 16:39:00
12:53 PM,75.9,69.1,79,30.13,10.0,East,10.4,-,0.00,,Overcast,90,2013-04-21 16:53:00
1:53 PM,77.0,70.0,79,30.10,10.0,ESE,8.1,-,0.02,Rain,Light Rain,110,2013-04-21 17:53:00
2:37 PM,73.4,69.8,88,30.09,10.0,NE,12.7,-,0.00,Rain,Light Rain,40,2013-04-21 18:37:00
2:53 PM,73.9,70.0,87,30.09,10.0,NNE,11.5,-,0.00,,Overcast,20,2013-04-21 18:53:00
3:53 PM,73.0,70.0,90,30.05,10.0,NE,9.2,-,0.03,Rain,Light Rain,40,2013-04-21 19:53:00
4:36 PM,73.4,73.4,100,30.04,6.0,NE,6.9,-,0.00,Rain,Light Rain,50,2013-04-21 20:36:00
4:41 PM,73.4,73.4,100,30.05,3.0,East,9.2,-,0.03,Rain,Heavy Rain,80,2013-04-21 20:41:00
4:44 PM,73.4,73.4,100,30.05,2.5,Variable,3.5,-,0.08,Rain,Heavy Rain,0,2013-04-21 20:44:00
4:53 PM,71.1,70.0,96,30.04,2.5,SE,13.8,17.3,0.29,Rain,Heavy Rain,130,2013-04-21 20:53:00
4:57 PM,71.6,69.8,94,30.04,3.0,SE,13.8,23.0,0.01,Rain,Rain,130,2013-04-21 20:57:00
5:02 PM,71.6,69.8,94,30.05,2.5,SE,6.9,23.0,0.06,Rain,Heavy Rain,140,2013-04-21 21:02:00
5:10 PM,71.6,69.8,94,30.06,1.8,SW,4.6,-,0.18,Rain,Heavy Rain,220,2013-04-21 21:10:00
5:13 PM,69.8,69.8,100,30.05,1.2,SW,8.1,-,0.23,Rain,Heavy Rain,220,2013-04-21 21:13:00
5:21 PM,71.6,71.6,100,30.05,1.8,SSW,4.6,-,0.49,Rain,Heavy Rain,200,2013-04-21 21:21:00
5:26 PM,71.6,71.6,100,30.05,2.0,WSW,3.5,-,0.54,Rain,Heavy Rain,250,2013-04-21 21:26:00
5:41 PM,71.6,71.6,100,30.05,3.0,Calm,Calm,-,0.67,Rain-Thunderstorm,Heavy Thunderstorms and Rain,0,2013-04-21 21:41:00
5:53 PM,72.0,72.0,100,30.06,3.0,Calm,Calm,-,0.74,Rain-Thunderstorm,Heavy Thunderstorms and Rain,0,2013-04-21 21:53:00
5:57 PM,71.6,71.6,100,30.06,2.5,Calm,Calm,-,0.01,Rain-Thunderstorm,Thunderstorms and Rain,0,2013-04-21 21:57:00
6:05 PM,71.6,71.6,100,30.07,4.0,NW,5.8,-,0.02,Rain-Thunderstorm,Light Thunderstorms and Rain,310,2013-04-21 22:05:00
6:17 PM,71.6,71.6,100,30.07,10.0,NNW,11.5,-,0.02,Rain-Thunderstorm,Light Thunderstorms and Rain,330,2013-04-21 22:17:00
6:25 PM,71.6,69.8,94,30.06,10.0,North,15.0,-,0.02,Rain-Thunderstorm,Light Thunderstorms and Rain,10,2013-04-21 22:25:00
6:53 PM,70.0,70.0,100,30.08,10.0,NNE,8.1,-,0.04,Rain,Light Rain,20,2013-04-21 22:53:00
7:53 PM,71.1,71.1,100,30.08,10.0,North,9.2,-,0.02,,Overcast,360,2013-04-21 23:53:00
8:17 PM,71.6,71.6,100,30.08,10.0,North,9.2,-,N/A,,Overcast,10,2013-04-22 00:17:00
8:35 PM,71.6,71.6,100,30.09,10.0,NNW,6.9,-,N/A,,Overcast,340,2013-04-22 00:35:00
8:53 PM,71.1,71.1,100,30.09,10.0,NNW,6.9,-,N/A,,Overcast,330,2013-04-22 00:53:00
9:15 PM,71.6,71.6,100,30.09,10.0,NNW,10.4,-,N/A,,Overcast,340,2013-04-22 01:15:00
9:53 PM,71.1,71.1,100,30.11,10.0,North,8.1,-,N/A,,Overcast,360,2013-04-22 01:53:00
10:53 PM,70.0,70.0,100,30.11,3.0,North,9.2,-,0.09,Rain,Rain,360,2013-04-22 02:53:00
11:53 PM,70.0,70.0,100,30.07,3.0,ENE,6.9,-,0.04,Rain,Light Rain,60,2013-04-22 03:53:00